Wind_Speed
7 6 5 5 4 4 4 4 4 4 4 5 5 5 5 4 3 2 1 1 1 2 2 3 3 4 4 4 5 5 5 5 5 5 4 4 4 4 4 3 3 3 2
8 7 7 7 6 6 6 6 6 6 6 6 7 7 6 5 5 4 3 2 2 1 1 1 2 3 3 3 3 4 4 4 4 4 3 3 4 4 3 3 3 2 2
9 9 9 8 8 8 8 8 8 8 8 8 8 8 7 7 6 6 5 4 3 2 1 0 1 1 2 2 2 2 3 3 3 3 3 3 3 3 3 3 2 2 2
10 10 10 10 10 10 10 10 10 10 10 10 10 10 9 8 8 8 7 6 5 4 3 2 1 2 2 2 2 2 2 3 3 3 3 2 2 2 3 2 2 1 1
11 11 11 11 11 11 11 12 12 12 12 12 11 11 11 10 10 10 9 8 6 5 4 3 3 3 3 3 3 3 3 3 3 3 3 2 2 2 3 3 2 2 2
11 12 11 12 13 13 13 13 14 13 14 14 13 13 13 13 12 11 10 9 8 7 6 6 5 4 4 5 5 5 5 4 4 4 3 3 3 3 3 3 3 3 3
11 12 12 13 13 14 15 15 15 15 16 16 15 15 15 14 13 13 12 11 10 10 9 8 7 6 6 6 7 7 7 6 6 5 4 5 5 5 4 4 4 4 4
12 12 13 14 14 15 15 16 17 17 18 18 17 17 16 16 15 14 14 13 12 12 11 10 9 8 8 8 8 8 8 8 7 6 6 6 6 6 6 6 6 6 6
13 13 13 13 14 16 16 17 18 19 19 19 19 19 18 17 17 16 15 15 14 14 13 12 11 10 10 10 10 10 10 10 9 9 8 8 8 7 7 7 7 7 7
15 14 14 14 15 16 17 19 20 21 21 21 21 21 20 19 19 18 17 17 16 16 15 14 14 13 12 12 11 11 11 11 11 11 10 10 9 9 9 9 9 9 9
15 14 14 15 16 17 17 19 20 21 22 22 22 22 22 21 20 20 20 19 18 18 17 16 15 15 14 13 13 13 13 13 12 12 11 11 11 11 11 11 11 11 11
16 15 15 16 17 17 18 19 20 21 22 22 22 23 24 23 22 21 21 20 20 19 19 18 17 17 16 16 15 14 14 14 13 12 13 13 13 13 13 13 12 12 12
16 17 17 17 19 19 19 20 20 21 22 22 23 24 24 24 23 22 22 22 21 21 20 19 19 19 18 18 17 16 16 15 15 14 14 14 14 14 15 14 14 14 14
17 18 19 19 20 19 19 21 21 22 23 24 24 25 25 25 24 24 23 23 23 21 21 21 21 20 20 19 19 18 18 17 17 16 16 16 16 15 15 16 16 16 16
18 19 19 20 21 20 21 22 23 24 25 25 24 25 24 25 25 25 26 24 24 23 22 22 22 22 21 21 20 19 18 18 18 18 17 17 17 16 17 17 17 18 17
18 18 19 20 22 22 23 24 24 24 24 24 25 24 23 24 25 25 24 24 24 24 24 23 23 22 23 22 21 21 20 19 19 19 19 19 19 19 18 18 18 20 20
18 18 20 21 22 23 23 23 24 24 23 24 24 24 23 23 25 25 25 26 25 24 24 25 24 24 24 23 22 22 21 21 20 20 20 20 20 20 20 20 19 20 21
19 20 21 22 23 23 23 23 23 23 23 23 23 24 25 25 24 25 25 26 26 26 26 26 25 25 24 24 23 23 22 22 21 21 21 21 21 21 21 21 21 21 22
20 21 22 22 22 22 22 23 22 22 22 22 23 25 27 25 25 25 25 26 25 26 26 25 25 25 24 24 23 23 23 23 23 22 22 22 22 22 22 22 21 22 22
21 22 22 23 23 23 23 24 24 24 23 23 24 25 25 25 25 26 26 26 26 25 24 24 25 24 24 24 24 23 23 24 23 23 23 23 23 23 23 22 22 22 23
22 22 24 24 23 23 24 24 24 24 24 24 24 24 24 24 25 25 25 25 24 24 24 25 24 24 24 24 24 23 23 24 23 24 24 25 25 25 24 24 23 23 24
22 23 24 24 24 25 24 25 25 25 25 25 25 24 23 23 23 23 24 24 24 25 25 25 25 24 24 24 24 23 23 24 24 24 24 25 26 26 25 25 25 25 25
23 23 23 24 25 25 25 25 25 25 25 25 24 23 23 23 23 23 24 25 25 25 24 24 24 23 23 23 23 23 23 23 24 25 25 25 25 26 26 26 26 26 25
21 22 22 24 24 25 25 26 25 25 25 24 24 23 23 23 24 25 24 25 25 25 24 24 25 24 24 23 23 23 23 24 24 24 25 25 25 25 25 25 26 27 27
21 22 23 24 24 24 25 25 25 25 24 23 24 24 23 23 24 24 25 26 26 26 25 25 25 25 24 24 24 24 24 24 25 25 25 25 25 25 25 26 26 26 27
23 24 24 24 24 25 25 25 25 25 25 24 24 24 23 23 24 24 25 26 26 26 26 25 25 25 24 24 24 24 24 24 25 25 26 26 25 25 25 25 25 25 26
Wind_Direction
281 280 276 269 260 253 253 254 260 264 264 266 266 262 256 250 242 240 230 177 136 110 93 76 71 67 64 59 58 55 52 50 48 45 44 43 46 47 48 45 44 46 42
281 280 276 271 267 261 255 255 257 259 260 263 266 265 261 255 248 242 234 216 193 173 133 95 74 60 56 50 50 50 47 44 42 39 40 42 45 46 44 41 40 41 36
280 279 275 274 273 268 263 260 259 256 256 260 262 263 262 257 253 245 243 240 234 230 218 163 55 34 28 26 23 25 24 22 24 27 28 34 37 35 36 31 29 30 25
280 277 276 274 274 272 266 264 262 258 255 256 256 258 259 259 256 252 250 251 248 245 244 252 286 321 332 332 332 334 337 342 349 358 3 5 10 17 17 7 4 3 354
278 277 276 271 271 273 270 266 264 260 256 255 254 255 257 258 257 255 253 253 251 250 251 257 271 290 302 302 300 304 311 319 326 331 329 326 336 347 350 347 333 329 319
275 278 277 274 272 274 272 267 263 259 256 255 255 254 255 256 257 256 254 254 254 253 254 256 264 276 285 286 287 291 295 301 304 315 316 312 311 315 321 324 307 300 293
275 278 277 275 273 273 272 268 264 261 257 255 254 255 255 255 256 257 256 256 256 257 258 259 263 271 277 280 282 284 286 289 293 302 302 299 300 300 299 298 288 280 278
277 277 277 275 272 271 270 265 262 261 261 258 254 255 256 255 255 257 256 255 256 259 261 262 265 271 275 277 279 281 282 283 284 285 289 287 287 285 286 282 280 275 270
276 275 276 273 271 272 272 268 263 261 261 261 257 256 255 254 254 256 257 256 257 259 261 264 267 271 274 276 279 282 282 281 281 280 282 284 281 279 280 276 273 270 268
277 275 274 275 275 274 274 271 266 262 262 261 257 256 254 252 253 255 256 256 257 259 260 264 268 271 273 275 279 282 281 280 282 280 280 280 278 277 278 274 274 269 267
277 277 279 282 279 278 276 273 269 265 263 261 257 256 255 253 253 254 255 256 257 258 260 263 267 271 274 275 278 279 277 277 278 277 278 281 279 277 275 273 273 271 266
277 279 281 284 280 278 277 275 271 268 264 261 258 258 257 254 253 254 254 256 257 259 261 263 266 269 272 274 275 276 275 274 276 278 278 280 280 278 276 274 271 270 266
278 281 284 285 282 277 275 276 272 269 263 261 260 260 259 253 252 253 253 254 255 257 260 263 266 269 270 271 271 273 274 274 275 276 277 278 280 279 275 273 269 268 266
276 280 283 286 284 278 276 277 275 272 268 264 262 262 260 254 251 251 252 255 256 259 261 263 264 266 267 268 270 273 274 273 271 272 275 278 277 277 276 273 270 267 265
280 280 282 284 286 283 283 280 277 272 270 267 263 262 261 259 256 253 253 255 256 259 261 263 263 264 264 265 267 269 271 273 272 272 273 274 274 275 277 275 270 266 266
278 281 283 283 282 283 284 283 278 278 273 270 268 265 265 260 256 255 254 255 260 262 262 264 263 264 264 264 266 267 270 272 272 272 272 272 273 275 276 276 274 269 266
275 281 283 282 283 284 286 287 280 278 276 271 270 268 268 265 261 260 256 260 263 262 264 265 264 266 266 265 266 267 268 271 273 272 272 273 274 275 275 276 276 274 270
277 281 283 283 284 285 285 286 281 277 276 273 271 269 269 267 263 260 261 264 263 263 265 266 267 268 267 266 266 267 268 270 272 272 274 273 274 275 275 276 276 276 273
276 280 282 284 285 285 285 285 283 280 280 278 275 273 270 268 264 262 264 264 265 267 268 266 267 270 267 267 267 268 268 269 271 272 273 273 274 275 274 274 275 276 276
277 279 281 284 286 285 285 286 286 284 283 282 279 273 267 266 264 264 266 264 266 268 267 266 268 269 269 270 269 270 270 271 271 272 274 273 273 274 275 274 274 276 276
278 279 280 283 285 286 286 287 288 287 286 286 285 278 273 269 266 266 266 267 266 266 265 266 266 269 271 270 271 271 272 273 273 273 275 274 274 274 273 273 274 275 276
279 281 282 283 285 286 287 288 290 287 287 289 287 282 276 272 270 270 270 269 268 268 267 267 267 270 271 273 273 272 274 274 275 275 275 275 274 272 272 273 274 276 276
278 279 282 284 285 286 287 287 289 287 287 286 284 282 280 276 271 271 272 270 270 270 269 269 268 270 271 272 273 275 276 276 276 275 275 273 271 272 274 274 274 276 277
280 281 282 284 286 286 287 288 287 286 286 285 284 282 277 277 274 270 272 273 273 272 270 270 271 272 271 272 275 277 276 275 276 275 275 275 274 274 274 273 274 275 276
280 284 284 285 286 286 287 288 287 285 286 286 284 281 279 279 278 277 274 272 273 273 273 272 271 273 273 274 276 277 276 277 277 277 277 278 277 275 274 275 275 276 277
280 283 284 285 284 286 286 285 286 287 288 286 283 283 281 281 281 278 276 274 273 273 272 272 271 273 273 274 276 277 278 278 279 278 278 278 278 275 274 275 277 278 279
Height
5910 5910 5910 5911 5911 5911 5911 5911 5911 5911 5911 5911 5911 5911 5911 5910 5910 5910 5909 5909 5908 5908 5907 5907 5907 5906 5906 5905 5905 5904 5904 5904 5903 5903 5903 5902 5902 5902 5902 5902 5902 5902 5902
5910 5910 5910 5910 5910 5910 5910 5910 5911 5911 5911 5911 5911 5911 5910 5910 5910 5909 5909 5909 5908 5908 5907 5907 5907 5906 5906 5905 5905 5904 5904 5904 5904 5903 5903 5903 5903 5902 5902 5902 5902 5902 5902
5909 5909 5909 5909 5909 5910 5910 5910 5910 5910 5910 5910 5910 5910 5910 5910 5909 5909 5909 5908 5908 5907 5907 5907 5907 5906 5906 5906 5905 5905 5904 5904 5904 5904 5903 5903 5903 5903 5902 5902 5902 5902 5902
5908 5908 5908 5908 5908 5908 5908 5908 5908 5908 5908 5908 5908 5909 5909 5909 5908 5908 5908 5908 5907 5907 5907 5907 5906 5906 5906 5906 5905 5905 5904 5904 5904 5904 5904 5903 5903 5903 5903 5902 5902 5902 5902
5906 5906 5907 5907 5907 5907 5907 5907 5907 5907 5907 5907 5907 5907 5907 5907 5907 5907 5907 5907 5907 5906 5906 5906 5906 5906 5906 5905 5905 5905 5904 5904 5904 5903 5903 5903 5903 5902 5902 5902 5902 5902 5902
5905 5904 5905 5905 5905 5905 5904 5904 5904 5904 5904 5905 5905 5905 5905 5905 5905 5905 5905 5905 5905 5905 5905 5905 5905 5905 5905 5905 5904 5904 5904 5903 5903 5903 5903 5903 5902 5902 5902 5902 5902 5902 5902
5903 5902 5903 5903 5903 5902 5902 5902 5902 5902 5902 5902 5902 5902 5903 5903 5903 5903 5904 5904 5904 5904 5904 5904 5904 5904 5904 5904 5903 5903 5903 5903 5902 5902 5902 5902 5902 5902 5902 5902 5901 5902 5902
5900 5900 5900 5900 5900 5899 5899 5899 5899 5899 5899 5899 5900 5900 5900 5900 5901 5901 5901 5902 5902 5902 5902 5902 5902 5902 5902 5902 5902 5902 5902 5901 5901 5901 5901 5901 5901 5901 5901 5901 5901 5901 5901
5897 5897 5897 5897 5897 5896 5896 5896 5896 5896 5896 5896 5896 5897 5897 5897 5898 5899 5899 5899 5900 5900 5900 5901 5900 5901 5901 5901 5900 5900 5900 5900 5900 5900 5900 5899 5899 5900 5900 5900 5900 5900 5900
5894 5894 5894 5894 5894 5893 5893 5893 5892 5892 5892 5893 5893 5893 5894 5894 5895 5895 5896 5897 5897 5898 5898 5898 5898 5899 5899 5899 5899 5899 5898 5898 5898 5898 5898 5898 5898 5898 5898 5898 5898 5898 5899
5891 5891 5891 5891 5890 5890 5890 5889 5888 5888 5889 5889 5889 5890 5890 5891 5891 5892 5893 5893 5894 5895 5895 5896 5896 5896 5896 5896 5897 5896 5896 5896 5896 5895 5895 5896 5896 5896 5896 5896 5896 5896 5897
5887 5888 5888 5888 5886 5886 5886 5885 5885 5884 5884 5885 5885 5885 5886 5887 5888 5888 5889 5890 5891 5891 5892 5893 5893 5893 5894 5894 5894 5894 5893 5893 5893 5892 5892 5893 5894 5894 5894 5894 5894 5894 5894
5884 5884 5885 5884 5883 5883 5882 5881 5880 5879 5879 5880 5880 5881 5882 5883 5883 5884 5885 5886 5887 5888 5888 5889 5890 5890 5890 5891 5891 5891 5891 5891 5890 5890 5890 5890 5891 5891 5891 5891 5891 5892 5892
5880 5881 5881 5881 5879 5878 5879 5878 5876 5876 5875 5875 5875 5876 5876 5878 5879 5879 5880 5882 5883 5884 5884 5885 5886 5886 5887 5887 5887 5887 5888 5888 5888 5888 5888 5888 5888 5888 5888 5888 5888 5889 5889
5877 5877 5877 5877 5875 5874 5875 5874 5873 5873 5872 5871 5870 5870 5871 5873 5874 5875 5875 5877 5878 5879 5880 5881 5881 5882 5883 5883 5883 5884 5884 5884 5885 5884 5885 5885 5885 5885 5885 5885 5885 5885 5886
5872 5873 5873 5873 5872 5871 5871 5869 5869 5868 5866 5866 5865 5865 5866 5868 5869 5869 5870 5872 5873 5874 5875 5875 5875 5877 5878 5878 5879 5879 5880 5880 5880 5880 5881 5881 5881 5881 5881 5881 5881 5881 5882
5867 5868 5869 5869 5868 5867 5867 5865 5864 5864 5862 5863 5863 5863 5862 5863 5863 5865 5866 5868 5869 5869 5870 5871 5871 5872 5873 5873 5874 5875 5875 5876 5876 5876 5876 5877 5877 5877 5877 5877 5877 5877 5877
5865 5866 5866 5865 5864 5863 5863 5862 5861 5860 5859 5859 5860 5859 5859 5859 5858 5860 5861 5863 5863 5864 5865 5866 5867 5867 5867 5868 5869 5869 5870 5870 5871 5871 5871 5871 5872 5872 5872 5872 5872 5872 5873
5862 5862 5862 5861 5861 5860 5859 5858 5858 5856 5856 5855 5854 5854 5854 5854 5854 5855 5856 5857 5858 5859 5859 5860 5861 5861 5862 5862 5863 5864 5865 5865 5865 5866 5866 5866 5867 5867 5867 5867 5867 5868 5868
5858 5858 5858 5857 5857 5856 5855 5854 5854 5852 5852 5851 5850 5849 5848 5849 5849 5850 5851 5852 5853 5854 5854 5855 5856 5856 5857 5857 5858 5858 5859 5859 5860 5860 5860 5861 5861 5861 5861 5862 5862 5863 5863
5854 5854 5853 5853 5852 5851 5851 5850 5849 5848 5847 5846 5845 5844 5844 5844 5844 5844 5846 5846 5847 5848 5849 5850 5850 5850 5851 5851 5852 5853 5853 5853 5854 5854 5855 5855 5855 5855 5856 5856 5857 5857 5857
5849 5849 5849 5848 5847 5846 5846 5845 5844 5843 5842 5841 5840 5839 5839 5839 5839 5840 5841 5841 5842 5843 5843 5844 5845 5845 5845 5846 5846 5847 5847 5848 5848 5848 5849 5849 5849 5849 5850 5850 5851 5851 5851
5844 5844 5844 5843 5842 5841 5841 5840 5839 5838 5837 5837 5836 5835 5835 5834 5834 5835 5835 5836 5836 5837 5838 5838 5839 5839 5840 5840 5840 5841 5842 5842 5842 5843 5842 5842 5842 5843 5844 5844 5845 5845 5845
5839 5839 5839 5838 5837 5836 5835 5835 5834 5833 5833 5832 5831 5830 5830 5830 5829 5829 5830 5830 5831 5831 5832 5832 5833 5833 5834 5834 5835 5835 5835 5836 5836 5837 5836 5836 5836 5837 5837 5838 5838 5839 5839
5835 5835 5834 5833 5832 5831 5830 5829 5828 5828 5827 5826 5825 5824 5824 5824 5824 5824 5824 5824 5825 5825 5825 5826 5827 5827 5828 5828 5829 5829 5829 5829 5830 5830 5830 5830 5830 5831 5831 5832 5832 5832 5833
5831 5830 5829 5828 5827 5827 5825 5824 5823 5822 5822 5821 5820 5819 5818 5819 5819 5819 5818 5818 5819 5819 5819 5820 5821 5821 5821 5822 5822 5823 5823 5823 5823 5823 5824 5824 5824 5824 5824 5825 5826 5826 5826